Blythe, CA

11:02 AM PDT on September 28, 2016 (GMT -0700)
Blythe

Weather History for KBLH - March, 2014

Change the Weather History Date:

Sunday, March 9, 2014

  Actual Average Record
Temperature  
Mean Temperature 70 °F -  
Max Temperature 82 °F 75 °F 91 °F (1972)
Min Temperature 59 °F 49 °F 43 °F (1971)
Cooling Degree Days 6    
Growing Degree Days 20 (Base 50)    
Moisture  
Dew Point 20 °F    
Average Humidity 16    
Maximum Humidity 25    
Minimum Humidity 10    
Precipitation  
Precipitation 0.00 in - - ()
Sea Level Pressure  
Sea Level Pressure 30.12 in    
Wind  
Wind Speed 9 mph (NNE)    
Max Wind Speed 15 mph    
Max Gust Speed 23 mph    
Visibility 10 miles    
Events      
Averages and records for this station are not official NWS values.
T = Trace of Precipitation, MM = Missing Value Source: NWS Daily Summary

Daily Weather History Graph

Daily Weather History Graph

Search for Another Location

Airport or City:

Trip Planner

Search our weather history database for the weather conditions in past years. The results will help you decide how hot, cold, wet, or windy it might be!

Date:

Astronomy

Mar. 09, 2014 Rise Set
Actual Time 6:57 AM PDT 6:42 PM PDT
Civil Twilight 6:32 AM PDT 7:06 PM PDT
Nautical Twilight 6:03 AM PDT 7:35 PM PDT
Astronomical Twilight 5:34 AM PDT 8:04 PM PDT
Moon 12:50 PM PDT (3/9) 3:14 AM PDT (3/9)
Length of Visible Light 12h 34m
Length of Day
11h 45m
First Quarter, 62% of the Moon is Illuminated
Mar 9
First Quarter
Mar 16
Full
Mar 23
Last Quarter
Mar 30
New
Apr 7
First Quarter

Hourly Weather History & Observations

Time (PDT) Temp. Dew Point Humidity Pressure Visibility Wind Dir Wind Speed Gust Speed Precip Events Conditions
12:52 AM 64.0 °F 14.0 °F 14% 30.14 in 10.0 mi NE 10.4 mph - N/A   Clear
1:52 AM 60.1 °F 16.0 °F 18% 30.15 in 10.0 mi NNW 4.6 mph - N/A   Clear
3:52 AM 64.9 °F 17.1 °F 16% 30.14 in 10.0 mi NE 15.0 mph - N/A   Clear
4:52 AM 59.0 °F 23.0 °F 25% 30.16 in 10.0 mi ENE 11.5 mph - N/A   Clear
5:52 AM 61.0 °F 21.9 °F 22% 30.16 in 10.0 mi ENE 10.4 mph - N/A   Clear
6:52 AM 60.1 °F 21.0 °F 22% 30.19 in 10.0 mi ENE 10.4 mph - N/A   Clear
7:52 AM 63.0 °F 21.0 °F 20% 30.21 in 10.0 mi NNW 5.8 mph - N/A   Clear
8:52 AM 70.0 °F 24.1 °F 18% 30.23 in 10.0 mi NE 5.8 mph - N/A   Clear
9:52 AM 73.9 °F 25.0 °F 16% 30.23 in 10.0 mi ENE 10.4 mph - N/A   Clear
10:52 AM 75.9 °F 25.0 °F 15% 30.22 in 10.0 mi ENE 8.1 mph - N/A   Clear
11:52 AM 78.1 °F 25.0 °F 14% 30.19 in 10.0 mi NNE 11.5 mph 18.4 mph N/A   Clear
12:52 PM 80.1 °F 24.1 °F 13% 30.16 in 10.0 mi NNE 10.4 mph 19.6 mph N/A   Clear
1:52 PM 81.0 °F 21.9 °F 11% 30.12 in 10.0 mi ENE 12.7 mph 23.0 mph N/A   Clear
2:52 PM 81.0 °F 21.9 °F 11% 30.09 in 10.0 mi NE 6.9 mph - N/A   Clear
3:52 PM 82.0 °F 19.9 °F 10% 30.06 in 10.0 mi NNE 11.5 mph - N/A   Clear
4:52 PM 82.0 °F 19.9 °F 10% 30.05 in 10.0 mi NE 9.2 mph - N/A   Clear
5:52 PM 81.0 °F 18.0 °F 10% 30.05 in 10.0 mi NNE 6.9 mph - N/A   Clear
6:52 PM 75.9 °F 18.0 °F 11% 30.05 in 10.0 mi NNW 6.9 mph - N/A   Clear
8:52 PM 64.9 °F 16.0 °F 15% 30.06 in 10.0 mi NNW 5.8 mph - N/A   Clear
9:52 PM 62.1 °F 16.0 °F 17% 30.05 in 10.0 mi North 8.1 mph - N/A   Clear
10:52 PM 62.1 °F 16.0 °F 17% 30.06 in 10.0 mi Calm Calm - N/A   Clear
11:52 PM 64.0 °F 17.1 °F 16% 30.05 in 10.0 mi West 3.5 mph - N/A   Clear
12:52 AM 61.0 °F 18.0 °F 19% 30.05 in 10.0 mi SW 5.8 mph - N/A   Clear